TIME,DELAY(SENSOR),PRES,OXYGEN,RAWTEMP,T(OPTODE),TCPHASE,FLUOR,BETA(BETA700),BETA(BETA412),BETA(BETA440),CDOM,C(CSC),ED(ED412.40),ED(ED444.00),ED(ED489.70),ED(ED554.30),LU(LU411.80),LU(LU443.40),LU(LU489.60),LU(LU554.10),COMP,TILTX,TILTY,CHECK
1372650707,5808,834.2899780273438000,45.9502182006835940,662.4890747070312000,4.5459918975830080,54.1510696411132800,54,102,84,79,80,15469,2147754934,2147422491,2148013147,2147874377,2147643593,2147058998,2148254912,2147195830,619,4,13,589
1372654303,5809,905.5999755859375000,49.7822914123535160,670.6005249023438000,4.2783598899841310,53.7050590515136700,52,98,86,78,79,15469,2147754285,2147423689,2148009280,2147872978,2147641005,2147057161,2148257435,2147196169,3115,4,13,18590
1372657903,5808,913.0100097656250000,50.2521018981933600,672.0086059570312000,4.2318229675292970,53.6604690551757800,52,99,88,79,79,15470,2147754432,2147424594,2148010569,2147876251,2147641691,2147060342,2148261842,2147196982,3047,4,13,21705
1372661503,5811,937.4199829101562000,50.4931106567382800,675.1483764648438000,4.1279740333557130,53.6665191650390600,53,101,88,78,80,15464,2147757257,2147428297,2148012086,2147874176,2147643446,2147055268,2148256923,2147200201,363,4,13,59266
1372665103,5808,931.5800170898438000,53.2749595642089840,675.8378295898438000,4.1051602363586430,53.2995109558105500,52,97,82,77,80,15467,2147756544,2147426477,2148011218,2147875940,2147640384,2147056301,2148257654,2147197787,164,4,13,4580
1372668703,5804,938.4699707031250000,55.5830688476562500,676.2299804687500000,4.0921750068664550,52.9998817443847660,52,100,87,80,78,15468,2147755373,2147423277,2148011282,2147873508,2147642496,2147053220,2148258569,2147199012,148,4,13,34824
1372672303,5808,977.3499755859375000,56.0343399047851560,677.0615844726562000,4.0646419525146480,52.9478988647460940,52,97,84,79,78,15472,2147755382,2147423753,2148008448,2147876882,2147641517,2147053449,2148256676,2147196379,3595,4,13,47336
1372675903,5812,987.9400024414062000,55.7473907470703100,676.6168212890625000,4.0793719291687010,52.9818916320800800,52,96,89,78,80,15469,2147755684,2147426066,2148012269,2147875776,2147645046,2147056566,2148262390,2147198317,18,4,13,7375
1372679503,5806,988.2500000000000000,55.5717086791992200,676.1140747070312000,4.0960121154785160,53.0010185241699200,52,98,85,79,79,15466,2147755291,2147423990,2148013174,2147874541,2147642880,2147052288,2148259364,2147200192,146,4,13,8793
1372683103,5807,986.2000122070312000,55.4931488037109400,676.3643188476562000,4.0877289772033690,53.0142593383789060,51,97,85,79,80,15468,2147755126,2147423963,2148012653,2147876406,2147642797,2147054720,2148261138,2147197065,3564,4,13,7426
1372686703,5813,989.6300048828125000,55.6908302307128900,676.5280761718750000,4.0823078155517580,52.9877700805664060,51,96,84,78,79,15466,2147755309,2147424548,2148010688,2147876096,2147642450,2147054016,2148260150,2147197622,35,4,13,13139
1372690303,5810,987.0100097656250000,55.2546005249023440,676.5584716796875000,4.0812988281250000,53.0447387695312500,53,111,87,78,79,15460,2147756013,2147423058,2148011757,2147875794,2147642057,2147052141,2148264310,2147193590,426,4,13,53773
1372693903,5807,988.7999877929688000,55.3836402893066400,677.2634277343750000,4.0579590797424320,53.0360183715820300,51,133,87,79,80,15466,2147752877,2147422601,2148012809,2147874596,2147641298,2147056740,2148261787,2147194861,3193,4,13,60080
1372697503,5810,984.3800048828125000,56.0479812622070300,678.1546020507812000,4.0284419059753420,52.9659385681152340,52,96,95,78,80,15468,2147756050,2147424164,2148011958,2147875245,2147641773,2147056201,2148257901,2147197851,3382,4,13,38073
1372701103,5809,987.0399780273438000,56.0258789062500000,678.0968017578125000,4.0303568840026855,52.9648094177246100,51,97,86,78,80,15467,2147754121,2147425234,2148010176,2147873270,2147641956,2147051126,2148262555,2147197750,76,4,13,59613
1372704703,5812,984.0000000000000000,55.8741683959960940,677.9509887695312000,4.0351848602294920,52.9844398498535160,52,96,88,80,79,15461,2147753316,2147420425,2148010907,2147877714,2147639524,2147054756,2148261110,2147194166,76,4,13,8444
1372708303,5811,982.2000122070312000,55.9771308898925800,678.3201293945312000,4.0229592323303220,52.9747695922851560,53,96,85,80,80,15465,2147755803,2147422601,2148010761,2147873526,2147642340,2147059245,2148264036,2147196928,596,4,13,7900
1372711903,5809,984.7899780273438000,56.0390701293945300,679.3565063476562000,3.9886169433593750,52.9801483154296900,52,98,86,76,79,15435,2147752676,2147422308,2148012425,2147874496,2147642523,2147051437,2148259712,2147196333,3492,4,13,48166
1372715503,5808,989.1400146484375000,56.3265304565429700,679.9027709960938000,3.9705119132995605,52.9470481872558600,52,99,86,78,80,15429,2147754825,2147419081,2148010944,2147875556,2147643035,2147047954,2148260800,2147197641,3566,4,13,34195
1372719103,5805,998.2399902343750000,55.8663101196289060,677.9144897460938000,4.0363960266113280,52.9835090637207000,52,96,83,79,79,15430,2147756653,2147427849,2148011181,2147875154,2147640676,2147060178,2148261833,2147197092,145,4,13,20971
1372722703,5807,997.5900268554688000,55.6067695617675800,676.7000732421875000,4.0766139030456540,53.0000991821289060,53,97,85,80,79,15430,2147755547,2147424320,2148009682,2147875830,2147639213,2147061001,2148259364,2147195520,3577,3,13,43076
1372726303,5810,1005.9400024414062000,55.3205604553222660,675.7542724609375000,4.1079239845275880,53.0242805480957000,52,97,86,78,79,15429,2147755227,2147421421,2148013238,2147876425,2147642258,2147058212,2148261056,2147194587,292,4,13,55803
1372729903,5808,997.0700073242188000,54.7882499694824200,675.9041137695312000,4.1029639244079590,53.0998382568359400,52,97,85,78,79,15426,2147753581,2147426806,2148009334,2147876964,2147641755,2147057133,2148263003,2147196205,146,4,13,45762
1372733503,5809,997.8900146484375000,55.2099609375000000,677.0172729492188000,4.0661091804504395,53.0571708679199200,52,116,85,77,78,15430,2147755757,2147424036,2148012909,2147874633,2147641115,2147056768,2148260178,2147196516,3573,4,13,56059
1372737103,5807,991.5900268554688000,55.0548591613769500,677.4436035156250000,4.0519919395446780,53.0816802978515600,53,97,87,80,80,15430,2147753600,2147423899,2148012772,2147876736,2147643364,2147056210,2148263844,2147197339,2952,4,13,58065
1372740703,5809,999.3200073242188000,55.0029411315918000,676.9182739257812000,4.0693888664245605,53.0863189697265600,52,96,84,78,80,15428,2147753444,2147424786,2148010313,2147871542,2147641398,2147054016,2148263378,2147198445,181,4,13,28096
1372744303,5807,985.6300048828125000,55.0897598266601560,677.8007812500000000,4.0401592254638670,53.0850791931152340,52,96,84,79,80,15428,2147753929,2147425755,2148012004,2147869787,2147638756,2147054080,2148261568,2147197138,535,3,13,51652
1372747903,5810,995.8599853515625000,55.9063110351562500,677.3574829101562000,4.0548419952392580,52.9706306457519500,52,96,85,79,79,15422,2147754413,2147424704,2148010322,2147873280,2147642944,2147057371,2148259300,2147199542,77,4,13,17012
1372751503,5808,996.4000244140625000,55.7177391052246100,677.0352783203125000,4.0655121803283690,52.9933090209960940,52,97,85,78,80,15427,2147752621,2147423616,2148011373,2147872630,2147642541,2147057645,2148262125,2147195821,284,4,13,30301
1372755103,5812,989.8300170898438000,55.0888099670410160,677.3048095703125000,4.0565872192382810,53.0759582519531250,51,97,86,78,79,15425,2147756297,2147425920,2148010870,2147875739,2147640987,2147055844,2148262372,2147199689,3264,4,13,50338
1372758703,5808,994.8499755859375000,55.9321708679199200,678.0117187500000000,4.0331759452819820,52.9739494323730500,52,97,83,78,79,15426,2147756242,2147422701,2148014317,2147876461,2147642742,2147055616,2148259373,2147200274,590,4,13,26054
1372762303,5810,997.0000000000000000,55.4406814575195300,679.0087890625000000,4.0001411437988280,53.0562400817871100,52,97,86,77,79,15426,2147755099,2147425417,2148012406,2147876864,2147644644,2147056905,2148263689,2147197394,3544,4,13,56228
1372765903,5808,999.8200073242188000,55.2530708312988300,677.6414794921875000,4.0454387664794920,53.0581398010253900,51,97,85,77,80,15422,2147751981,2147422921,2148009444,2147872612,2147640539,2147059648,2148259355,2147196379,3551,4,13,22533
1372769503,5811,1001.7800292968750000,55.2303695678710940,676.4735717773438000,4.0841121673583980,53.0465507507324200,53,96,89,78,78,15416,2147755026,2147425554,2148010285,2147874523,2147640950,2147057325,2148265728,2147197888,263,4,13,39946
1372773103,5810,990.4699707031250000,55.0644989013671900,676.7011718750000000,4.0765762329101560,53.0744781494140600,52,98,84,79,79,15424,2147753316,2147422674,2148014848,2147875273,2147643666,2147060507,2148265069,2147203190,3243,4,13,64123
1372776703,5810,994.2399902343750000,55.0626106262207000,676.7799072265625000,4.0739707946777340,53.0713882446289060,51,96,88,78,78,15422,2147756845,2147423332,2148012013,2147873252,2147640978,2147058432,2148258770,2147197750,3530,4,13,27077
1372780303,5808,991.6199951171875000,55.4157218933105500,678.7241210937500000,4.0095748901367190,53.0514106750488300,52,102,85,78,79,15413,2147754953,2147427492,2148013129,2147872219,2147643602,2147058020,2148256173,2147199506,3129,4,13,44942
1372783903,5809,994.0499877929688000,55.3301811218261700,678.9119873046875000,4.0033469200134280,53.0681114196777340,53,97,84,78,80,15423,2147755236,2147428269,2148009801,2147876269,2147644333,2147051446,2148262336,2147197531,165,4,13,51913
1372787503,5807,991.5200195312500000,55.4639205932617200,679.1937866210938000,3.9940109252929688,53.0513496398925800,53,98,84,78,81,15426,2147754441,2147423442,2148010706,2147875776,2147643401,2147058889,2148259081,2147197842,383,4,13,35549
1372791103,5809,989.8200073242188000,55.7169494628906250,679.8732299804688000,3.9714910984039307,53.0322113037109400,53,101,86,78,78,15422,2147755977,2147424219,2148011364,2147875254,2147641901,2147056685,2148261074,2147198729,299,4,13,7378
1372794703,5809,991.9099731445312000,55.4517707824707000,680.0734863281250000,3.9648530483245850,53.0677604675293000,52,96,85,79,78,15422,2147755282,2147424914,2148007597,2147875766,2147640420,2147050852,2148263076,2147200393,211,4,13,15975
1372795855,5807,994.0100097656250000,56.3503494262695300,679.9871215820312000,3.9677178859710693,52.9491691589355500,53,99,86,78,79,15453,2147751378,2147424347,2148009984,2147877083,2147641179,2147053129,2148260068,2147197805,300,4,13,55622
